| time (UTC) | temp F | wind direction | speed knots | gust knots | rain 1hr in | rain 24hr in | rain mn in | humidity % | barometer mb |
| 20260505184001 | 52 | 248 | 9.6 | 20.0 | 0.00 | 0.01 | 0.00 | 74 | |
| 20260505183002 | 53 | 270 | 17.4 | 20.0 | 0.00 | 0.01 | 0.00 | 72 | |
| 20260505182002 | 52 | 270 | 12.2 | 17.4 | 0.00 | 0.01 | 0.00 | 75 | |
| 20260505181001 | 52 | 270 | 8.7 | 14.8 | 0.00 | 0.01 | 0.00 | 79 | |
| 20260505180001 | 52 | 248 | 14.8 | 15.6 | 0.00 | 0.01 | 0.00 | 77 | |
| 20260505175002 | 51 | 248 | 13.9 | 13.9 | 0.00 | 0.01 | 0.00 | 80 | |
| 20260505174001 | 52 | 202 | 13.0 | 18.2 | 0.00 | 0.01 | 0.00 | 80 | |
| 20260505173002 | 51 | 270 | 19.1 | 20.9 | 0.00 | 0.01 | 0.00 | 81 | |
| 20260505172001 | 50 | 225 | 13.9 | 15.6 | 0.00 | 0.01 | 0.00 | 84 | |
| 20260505171430 | 50 | 270 | 14.8 | 15.6 | 0.00 | 0.01 | 0.00 | 85 | |
| 20260505170001 | 49 | 248 | 12.2 | 19.1 | 0.00 | 0.01 | 0.00 | 88 | |
| 20260505165002 | 49 | 270 | 12.2 | 15.6 | 0.00 | 0.01 | 0.00 | 91 | |
| 20260505164001 | 47 | 248 | 10.4 | 17.4 | 0.00 | 0.01 | 0.00 | 93 | |
| 20260505163002 | 47 | 248 | 8.7 | 17.4 | 0.00 | 0.01 | 0.00 | 93 | |
| 20260505162001 | 48 | 270 | 8.7 | 11.3 | 0.00 | 0.01 | 0.00 | 90 | |
| 20260505161002 | 47 | 248 | 8.7 | 13.0 | 0.00 | 0.01 | 0.00 | 90 | |
| 20260505152002 | 47 | 180 | 2.6 | 9.6 | 0.00 | 0.00 | 0.00 | 87 | |
| 20260505151001 | 46 | 225 | 6.1 | 10.4 | 0.00 | 0.00 | 0.00 | 87 | |
| 20260505125001 | 43 | 292 | 14.8 | 20.0 | 0.00 | 0.00 | 0.00 | 89 | |
| 20260505124002 | 43 | 270 | 18.2 | 19.1 | 0.00 | 0.00 | 0.00 | 88 | |
| 20260505123001 | 44 | 270 | 17.4 | 20.9 | 0.00 | 0.00 | 0.00 | 86 | |
| 20260505122002 | 46 | 270 | 24.3 | 26.1 | 0.00 | 0.00 | 0.00 | 77 | |
| 20260505121001 | 47 | 248 | 12.2 | 21.7 | 0.00 | 0.00 | 0.00 | 74 | |
| 20260505120002 | 47 | 270 | 12.2 | 21.7 | 0.00 | 0.00 | 0.00 | 75 | |
| 20260505115002 | 47 | 270 | 10.4 | 19.1 | 0.00 | 0.00 | 0.00 | 75 | |
| 20260505114425 | 48 | 270 | 16.5 | 25.2 | 0.00 | 0.00 | 0.00 | 73 | |
| 20260505113002 | 48 | 270 | 8.7 | 17.4 | 0.00 | 0.00 | 0.00 | 73 | |
| 20260505112427 | 48 | 270 | 12.2 | 14.8 | 0.00 | 0.00 | 0.00 | 75 | |
| 20260505111002 | 48 | 270 | 14.8 | 17.4 | 0.00 | 0.00 | 0.00 | 76 | |
| 20260505040002 | 53 | 315 | 9.6 | 13.9 | 0.00 | 0.00 | 0.00 | 57 | |
| 20260505035001 | 54 | 315 | 13.9 | 20.9 | 0.00 | 0.00 | 0.00 | 57 | |
| 20260505034002 | 54 | 270 | 10.4 | 17.4 | 0.00 | 0.00 | 0.00 | 53 | |
| 20260505033426 | 55 | 292 | 13.0 | 18.2 | 0.00 | 0.00 | 0.00 | 49 | |
| 20260505032002 | 55 | 292 | 9.6 | 16.5 | 0.00 | 0.00 | 0.00 | 47 | |
| 20260505031001 | 56 | 338 | 9.6 | 13.9 | 0.00 | 0.00 | 0.00 | 45 | |
| 20260505030002 | 56 | 270 | 7.8 | 15.6 | 0.00 | 0.00 | 0.00 | 43 | |
| 20260505025426 | 57 | 315 | 9.6 | 15.6 | 0.00 | 0.00 | 0.00 | 41 | |
| 20260505024002 | 57 | 292 | 7.8 | 17.4 | 0.00 | 0.00 | 0.00 | 41 | |
| 20260505023002 | 57 | 292 | 12.2 | 20.0 | 0.00 | 0.00 | 0.00 | 40 | |
| 20260505022001 | 58 | 338 | 13.9 | 19.1 | 0.00 | 0.00 | 0.00 | 39 | |
| 20260505021002 | 58 | 270 | 12.2 | 20.9 | 0.00 | 0.00 | 0.00 | 38 | |
| 20260505020002 | 58 | 270 | 12.2 | 20.9 | 0.00 | 0.00 | 0.00 | 38 | |
| 20260505015426 | 59 | 270 | 18.2 | 24.3 | 0.00 | 0.00 | 0.00 | 37 | |
| 20260505014002 | 60 | 292 | 17.4 | 24.3 | 0.00 | 0.00 | 0.00 | 37 | |
| 20260505013002 | 61 | 270 | 7.8 | 19.1 | 0.00 | 0.00 | 0.00 | 33 | |
| 20260505012002 | 62 | 270 | 10.4 | 20.9 | 0.00 | 0.00 | 0.00 | 32 | |
| 20260505011002 | 62 | 270 | 18.2 | 18.2 | 0.00 | 0.00 | 0.00 | 30 | |
| 20260505010001 | 63 | 270 | 16.5 | 20.0 | 0.00 | 0.00 | 0.00 | 28 | |
| 20260505005002 | 64 | 270 | 9.6 | 16.5 | 0.00 | 0.00 | 0.00 | 28 | |
| 20260505004002 | 64 | 202 | 6.1 | 16.5 | 0.00 | 0.00 | 0.00 | 27 | |
| 20260505003001 | 64 | 248 | 15.6 | 18.2 | 0.00 | 0.00 | 0.00 | 27 | |
| 20260505002002 | 64 | 248 | 15.6 | 20.0 | 0.00 | 0.00 | 0.00 | 26 | |
| 20260505001001 | 65 | 225 | 15.6 | 20.0 | 0.00 | 0.00 | 0.00 | 26 | |
| 20260505000002 | 65 | 202 | 7.8 | 14.8 | 0.00 | 0.00 | 0.00 | 26 | |
| 20260504235002 | 65 | 270 | 20.9 | 20.9 | 0.00 | 0.00 | 0.00 | 26 | |
| 20260504234001 | 65 | 270 | 14.8 | 20.9 | 0.00 | 0.00 | 0.00 | 26 | |
| 20260504233002 | 66 | 248 | 17.4 | 19.1 | 0.00 | 0.00 | 0.00 | 26 | |
| 20260504232002 | 66 | 225 | 22.6 | 24.3 | 0.00 | 0.00 | 0.00 | 26 | |
| 20260504231002 | 66 | 270 | 13.0 | 22.6 | 0.00 | 0.00 | 0.00 | 26 | |
| 20260504230427 | 67 | 248 | 12.2 | 19.1 | 0.00 | 0.00 | 0.00 | 26 | |
| 20260504225001 | 68 | 225 | 15.6 | 18.2 | 0.00 | 0.00 | 0.00 | 25 | |
| 20260504224002 | 68 | 270 | 21.7 | 24.3 | 0.00 | 0.00 | 0.00 | 25 | |
| 20260504223002 | 68 | 270 | 12.2 | 20.0 | 0.00 | 0.00 | 0.00 | 25 | |
| 20260504222002 | 68 | 270 | 10.4 | 12.2 | 0.00 | 0.00 | 0.00 | 27 | |
| 20260504221002 | 67 | 270 | 14.8 | 20.9 | 0.00 | 0.00 | 0.00 | 27 | |
| 20260504220428 | 66 | 248 | 14.8 | 23.5 | 0.00 | 0.00 | 0.00 | 27 | |
| 20260504215002 | 66 | 248 | 16.5 | 20.9 | 0.00 | 0.00 | 0.00 | 27 | |
| 20260504214424 | 69 | 225 | 12.2 | 20.0 | 0.00 | 0.00 | 0.00 | 26 | |
| 20260504213002 | 68 | 225 | 21.7 | 21.7 | 0.00 | 0.00 | 0.00 | 25 | |
| 20260504212002 | 67 | 270 | 14.8 | 18.2 | 0.00 | 0.00 | 0.00 | 25 | |
| 20260504211002 | 69 | 225 | 14.8 | 17.4 | 0.00 | 0.00 | 0.00 | 24 | |
| 20260504210428 | 70 | 270 | 13.9 | 17.4 | 0.00 | 0.00 | 0.00 | 25 | |
| 20260504205429 | 68 | 248 | 20.9 | 20.9 | 0.00 | 0.00 | 0.00 | 25 | |
| 20260504204425 | 68 | 248 | 22.6 | 22.6 | 0.00 | 0.00 | 0.00 | 25 | |
| 20260504203001 | 67 | 225 | 12.2 | 20.0 | 0.00 | 0.00 | 0.00 | 25 | |
| 20260504202001 | 68 | 225 | 19.1 | 21.7 | 0.00 | 0.00 | 0.00 | 26 | |
| 20260504201428 | 67 | 225 | 9.6 | 20.9 | 0.00 | 0.00 | 0.00 | 26 | |
| 20260504200001 | 67 | 270 | 7.8 | 19.1 | 0.00 | 0.00 | 0.00 | 25 | |
| 20260504195002 | 67 | 225 | 5.2 | 18.2 | 0.00 | 0.00 | 0.00 | 26 | |
| 20260504194001 | 67 | 270 | 7.0 | 19.1 | 0.00 | 0.00 | 0.00 | 25 | |
| 20260504193002 | 66 | 270 | 13.9 | 20.9 | 0.00 | 0.00 | 0.00 | 26 | |
| 20260504192427 | 68 | 180 | 9.6 | 16.5 | 0.00 | 0.00 | 0.00 | 26 | |
| 20260504191002 | 68 | 270 | 12.2 | 15.6 | 0.00 | 0.00 | 0.00 | 24 | |
| 20260504190002 | 68 | 270 | 12.2 | 18.2 | 0.00 | 0.00 | 0.00 | 26 | |
| 20260504185002 | 65 | 248 | 16.5 | 20.0 | 0.00 | 0.00 | 0.00 | 26 |